Погода в Козьминском

Россия / Тульская область     53°10′40″N   38°27′06″E
темп.,
°C
ветер,
м/с
пор.,
м/с
влажн.,
%
обл.,
%
осадки,
мм/ч
давл.,
гПа
погр.,
м
18 апреля, вс
вс1800:00+6ююз349215 0.1 1019178
03:00+5ююв119025 0.1 101812
06:00+4вюв11915 0.0 101811
09:00+8в348095 0.1 1018470
12:00+10ююв236298 0.8 10181107
15:00+11ююв4457100 1.5 10181214
18:00+10юв2365100 0.9 1018681
21:00+9всв1174100 1.8 101824
19 апреля, пн
пн1900:00+8всв3376100 0.1 101857
03:00+7всв3486100 0.1 101877
06:00+6св3595100 0.1 1018133
09:00+9всв678094 0.6 1018727
12:00+8св6785100 0.7 1019667
15:00+8св7882100 1.3 1019786
18:00+5св61092100 0.1 1019580
21:00+5св51094100 0.1 1019464
20 апреля, вт
вт2000:00+5всв51093100 0.1 1019526
03:00+5всв51095100 0.2 1018457
06:00+5всв4997100 0.0 1017411
09:00+6в51095100 0.1 1017586
12:00+8в71086100 0.1 1016736
15:00+7всв81287100 0.1 1013746
18:00+5всв101593100 5.2 1010917
21:00+4в112192100 16.5 10051318
21 апреля, ср
ср2100:00+7вюв112092100 2.3 1000940
03:00+9ююв81490100 2.6 998790
06:00+8ююв61294100 1.1 999600
09:00+3зюз61096100 3.4 1002444
12:00+4зюз71183100 0.1 1006851
15:00+5зюз81278100 0.1 10101110
18:00+6юз5108099 0.0 1012890
21:00+6юз51181100 0.1 1015402
22 апреля, чт
чт2200:00+6юз4108286 0.1 1016306
03:00+3ююз38895 0.1 1017159
06:00+3ююз38885 0.0 1019168
09:00+8ююз58696 0.0 1019520
12:00+12ююз575562 0.0 10201505
15:00+13ююз5752100 0.1 10191821
18:00+12ююз476460 0.0 1019444
21:00+9ююв387673 0.1 1020160